Weather History for Myrtle Beach, SC

Change the Weather History Date:

Saturday, February 16, 2013

  Actual Average Record
Temperature  
Mean Temperature 43 °F -  
Max Temperature 53 °F 57 °F 77 °F (1949)
Min Temperature 33 °F 38 °F 19 °F (1991)
Degree Days  
Heating Degree Days 22    
Moisture  
Dew Point 37 °F    
Average Humidity 87    
Maximum Humidity 100    
Minimum Humidity 54    
Precipitation  
Precipitation 0.16 in - - ()
Sea Level Pressure  
Sea Level Pressure 29.90 in    
Wind  
Wind Speed 6 mph (WNW)    
Max Wind Speed 18 mph    
Max Gust Speed 23 mph    
Visibility 9 miles    
Events Rain , Snow    
Averages and records for this station are not official NWS values.
T = Trace of Precipitation, MM = Missing Value Source: NWS Daily Summary

Daily Weather History Graph

Daily Weather History Graph

Search for Another Location

Airport:

Trip Planner

Search our weather history database for the weather conditions in past years. The results will help you decide how hot, cold, wet, or windy it might be!

Date:

Astronomy

Feb. 16, 2013 Rise Set
Actual Time 6:58 AM EST 6:01 PM EST
Civil Twilight 6:33 AM EST 6:26 PM EST
Nautical Twilight 6:04 AM EST 6:55 PM EST
Astronomical Twilight 5:35 AM EST 7:24 PM EST
Moon 10:31 AM EST (2/16) No Moon Set
Length of Visible Light 11h 53m
Length of Day
11h 02m
Waxing Crescent, 39% of the Moon is Illuminated
Feb 16
Waxing Crescent
Feb 17
First Quarter
Feb 25
Full
Mar 4
Last Quarter
Mar 11
New

Hourly Weather History & Observations

Time (EST) Temp. Windchill Dew Point Humidity Pressure Visibility Wind Dir Wind Speed Gust Speed Precip Events Conditions
12:15 AM 42.8 °F 41.1 °F 39.2 °F 87% 29.97 in 10.0 mi SSW 3.5 mph - N/A   Clear
12:35 AM 39.2 °F - 37.4 °F 93% 29.96 in 10.0 mi Calm Calm - N/A   Clear
12:55 AM 39.2 °F - 37.4 °F 93% 29.96 in 10.0 mi Calm Calm - N/A   Clear
1:15 AM 39.2 °F 37.0 °F 37.4 °F 93% 29.95 in 10.0 mi WSW 3.5 mph - N/A   Clear
1:35 AM 37.4 °F 34.9 °F 37.4 °F 100% 29.95 in 7.0 mi SW 3.5 mph - N/A   Clear
1:55 AM 41.0 °F 38.0 °F 39.2 °F 93% 29.94 in 10.0 mi South 4.6 mph - N/A   Clear
2:15 AM 42.8 °F 41.1 °F 39.2 °F 87% 29.94 in 10.0 mi SW 3.5 mph - N/A   Clear
2:35 AM 39.2 °F - 37.4 °F 93% 29.94 in 10.0 mi Calm Calm - N/A   Clear
2:55 AM 42.8 °F 41.1 °F 39.2 °F 87% 29.94 in 10.0 mi WSW 3.5 mph - N/A   Clear
3:15 AM 42.8 °F 41.1 °F 39.2 °F 87% 29.93 in 10.0 mi SW 3.5 mph - N/A   Clear
3:35 AM 42.8 °F - 39.2 °F 87% 29.92 in 10.0 mi Calm Calm - N/A   Clear
3:55 AM 42.8 °F 41.1 °F 39.2 °F 87% 29.91 in 10.0 mi SW 3.5 mph - N/A   Clear
4:15 AM 42.8 °F 41.1 °F 39.2 °F 87% 29.90 in 10.0 mi WSW 3.5 mph - N/A   Clear
4:35 AM 42.8 °F - 39.2 °F 87% 29.89 in 10.0 mi Calm Calm - N/A   Clear
4:55 AM 42.8 °F 37.0 °F 39.2 °F 87% 29.90 in 10.0 mi NW 10.4 mph - N/A   Clear
5:15 AM 41.0 °F 38.0 °F 37.4 °F 87% 29.89 in 10.0 mi NW 4.6 mph - N/A   Clear
5:35 AM 39.2 °F 35.0 °F 37.4 °F 93% 29.89 in 10.0 mi NW 5.8 mph - N/A   Clear
6:50 AM 37.4 °F 32.8 °F 35.6 °F 93% 29.89 in 8.0 mi NW 5.8 mph - N/A   Clear
8:45 AM 44.6 °F 38.8 °F 42.8 °F 93% 29.87 in 10.0 mi NNE 11.5 mph - N/A   Clear
9:45 AM 48.2 °F - 42.8 °F 82% 29.87 in 10.0 mi NNE 13.8 mph - N/A   Clear
11:50 AM 53.6 °F - 41.0 °F 62% 29.83 in 10.0 mi North 11.5 mph - N/A   Scattered Clouds
12:45 PM 53.6 °F - 37.4 °F 54% 29.81 in 10.0 mi NNW 11.5 mph - N/A   Mostly Cloudy
1:45 PM 48.2 °F - 33.8 °F 58% 29.80 in 10.0 mi NNW 17.3 mph 23.0 mph N/A Rain Light Rain
3:45 PM 37.4 °F 27.8 °F 33.8 °F 87% 29.85 in 5.0 mi NNW 17.3 mph 23.0 mph N/A Rain Light Rain
4:15 PM 37.4 °F 27.8 °F 33.8 °F 87% 29.85 in 6.0 mi NNW 17.3 mph - N/A Rain Light Rain
4:45 PM 37.4 °F 29.8 °F 35.6 °F 93% 29.83 in 6.0 mi NNW 11.5 mph - N/A   Overcast
5:45 PM 37.4 °F 30.8 °F 35.6 °F 93% 29.84 in 10.0 mi WNW 9.2 mph - N/A   Overcast
6:45 PM 37.4 °F 29.8 °F 35.6 °F 93% 29.87 in 10.0 mi NW 11.5 mph - N/A   Overcast
7:45 PM 37.4 °F 32.8 °F 35.6 °F 93% 29.88 in 10.0 mi West 5.8 mph - N/A   Mostly Cloudy
9:01 PM 37.4 °F 27.5 °F 30.2 °F 75% 29.91 in 0.5 mi WNW 18.4 mph - N/A Snow Snow
9:25 PM 33.8 °F 27.7 °F 33.8 °F 100% 29.90 in 7.0 mi North 6.9 mph - N/A   Mostly Cloudy
9:50 PM 33.8 °F 27.7 °F 30.2 °F 87% 29.91 in 7.0 mi North 6.9 mph - N/A   Mostly Cloudy
11:15 PM 33.8 °F 23.9 °F 30.2 °F 87% 29.96 in 2.0 mi WNW 15.0 mph 19.6 mph N/A   Overcast
11:35 PM 33.8 °F 25.3 °F 30.2 °F 87% 29.95 in 7.0 mi WNW 11.5 mph - N/A   Overcast
11:55 PM 33.8 °F 25.3 °F 30.2 °F 87% 29.97 in 10.0 mi WNW 11.5 mph - N/A   Overcast